Болгар

Россия / Республика Татарстан     54°58′56″N   49°01′21″E
темп.,
°C
ветер,
м/с
пор.,
м/с
влажн.,
%
обл.,
%
осадки,
мм/ч
давл.,
гПа
погр.,
м
22 апреля, чт
чт2200:00+3ю81392100 0.2 1021301
03:00+3ю71196100 0.4 1022204
06:00+3ю61097100 0.1 1023158
09:00+3ю5896100 0.1 1024112
12:00+5ю698545 0.0 1023149
15:00+6ю58835 0.0 1023157
18:00+6ююв59825 0.1 102288
21:00+5ю58875 0.4 102376
23 апреля, пт
пт2300:00+3ю46875 0.0 102461
03:00+2ю33955 0.0 102520
06:00+2ю229726 0.0 102528
09:00+4ю34930 0.0 102668
12:00+5ююв12832 0.0 1025142
15:00+4св228973 0.0 1024163
18:00+5в2385100 0.0 102242
21:00+5в3386100 0.1 102124
24 апреля, сб
сб2400:00+3св3391100 0.0 101925
03:00+2св339494 0.0 101726
06:00+3всв3497100 0.0 101651
09:00+3всв3499100 1.0 101466
12:00+2св3499100 1.4 101363
15:00+2св3499100 2.0 101156
18:00+3вюв2299100 0.1 101037
21:00+2юв3510091 0.1 100845
25 апреля, вс
вс2500:00+3ююз46100100 1.1 100689
03:00+3з61189100 1.1 1007186
06:00+2юз368951 0.0 1007110
09:00+3юз4782100 0.0 1009208
12:00+4зюз6873100 0.4 1010241
15:00+5з5863100 0.9 1011361
18:00+5зюз697362 0.8 1013121
21:00+3зюз58805 1.1 101582
26 апреля, пн
пн2600:00+2юз58813 0.0 101782
03:00+2юз47845 0.0 101776
06:00+2юз47841 0.0 101893
09:00+4юз57745 0.0 1018189
12:00+6ююз61061100 0.0 1017345
15:00+6ююз6959100 0.1 1016284
18:00+5ю4468100 0.0 101544
21:00+3ю3575100 0.0 101445